Location: Dreilärchen
(47.9312°N, 8.6113°E)
Time: 19:52:57
(UTC+00:00)

Cosmos 1943 Rocket - Pass Details

Date: 26 May 2022
Orbit: 810 x 845 km, 71.0° (Epoch: 02 July)

Event Time Altitude Azimuth Distance (km) Brightness Sun altitude
Rises 01:25:17 0° 330° (NNW) 3,413 5.8 -15.7°
Reaches altitude 10° 01:27:45 10° 328° (NNW) 2,476 5.0 -15.5°
Maximum altitude 01:33:23 68° 247° (WSW) 912 2.2 -15.0°
Drops below altitude 10° 01:38:59 10° 166° (SSE) 2,457 4.2 -14.5°
Enters shadow 01:39:23 - 165° (SSE) 2,606 4.4 -14.5°
